Location: Luxembourg
(49.6117°N, 6.1300°E)
Time: 03:44:33
(UTC+02:00)

Tiangong 2 - Pass Details

Date: 20 May 2019
Orbit: 376 x 389 km, 42.8° (Epoch: 16 June)

Event Time Altitude Azimuth Distance (km) Brightness Sun altitude
Rises 22:56:49 0° 231° (SW) 2,229 4.9 -12.3°
Reaches altitude 10° 22:59:17 10° 211° (SSW) 1,379 3.6 -12.5°
Enters shadow 23:00:34 16° 188° (S) 1,086 2.9 -12.7°
